AirNav   Everest Fuels
 
 324 users online  

F86 Caldwell Parish Airport
Columbia, Louisiana, USA

GOING TO COLUMBIA?


FAA INFORMATION EFFECTIVE 18 JUNE 2020

Location

FAA Identifier: F86
Lat/Long: 32-07-19.8000N 092-03-16.2000W
32-07.330000N 092-03.270000W
32.1221667,-92.0545000
(estimated)
Elevation: 66.9 ft. / 20.4 m (surveyed)
Variation: 04E (1985)
From city: 2 miles NE of COLUMBIA, LA
Time zone: UTC -5 (UTC -6 during Standard Time)
Zip code: 71418

Airport Operations

Airport use: Open to the public
Activation date: 04/1964
Control tower: no
ARTCC: FORT WORTH CENTER
FSS: DE RIDDER FLIGHT SERVICE STATION
NOTAMs facility: DRI (NOTAM-D service available)
Attendance: UNATNDD
Wind indicator: lighted, WINDSOCK OTS TEMPOLY.
Segmented circle: yes
Lights: REIL RWY 01/19 OPR CONS; ACTVT MIRL RWY 01/19 - CTAF.
Beacon: white-green (lighted land airport)
Operates sunset to sunrise.

Airport Communications

CTAF: 122.9

Nearby radio navigation aids

VOR radial/distance  VOR name  Freq  Var
MLUr179/23.7MONROE VORTAC117.2003E
SWBr072/32.9SAWMILL VOR/DME113.7502E

 
NDB name  Hdg/Dist  Freq  Var  ID
BASTROP190/38.932903EBQP -... --.- .--.
RUSTON134/39.836803EROQ .-. --- --.-

Airport Services

Parking: tiedowns
Airframe service: NONE
Powerplant service: NONE
Bottled oxygen: NONE
Bulk oxygen: NONE

Runway Information

Runway 1/19

Dimensions: 3501 x 75 ft. / 1067 x 23 m
Surface: asphalt, in fair condition
GRASS GROWING THROUGH CRACKS.
Weight bearing capacity: 
Single wheel: 6.0
Runway edge lights: medium intensity
RUNWAY 1  RUNWAY 19
Latitude: 32-07.047528N32-07.611090N
Longitude: 092-03.344247W092-03.196722W
Elevation: 66.8 ft.63.0 ft.
Traffic pattern: leftleft
Runway heading: 009 magnetic, 013 true189 magnetic, 193 true
Markings: basic, in fair conditionbasic, in fair condition
Visual slope indicator: 2-light PAPI on left (3.50 degrees glide path)2-light PAPI on left (3.00 degrees glide path)
Runway end identifier lights: yes
REIL OTS APCH END RWY 01.
yes
REIL OTS APCH END RWY 19.
Touchdown point: yes, no lightsyes, no lights
Obstructions: 81 ft. trees, 1580 ft. from runway, 151 ft. right of centerline, 17:1 slope to clear
4 FT FENCE 197 FT FM END OF RWY.
none

Airport Ownership and Management from official FAA records

Ownership: Publicly-owned
Owner: CALDWELL PARISH POLICE JURY
PO BOX 1737
COLUMBIA, LA 71418
Phone 318-649-2681
Manager: REED KEAHEY
PO BOX 1139
COLUMBIA, LA 71418
Phone (318) 331-3888

Airport Operational Statistics

Aircraft based on the field: 10
Single engine airplanes: 10
    
Aircraft operations: avg 38/day *
73% local general aviation
27% transient general aviation
* for 12-month period ending 18 March 2020

Additional Remarks

BIRDS IN VCNTY OF AP.
FOREIGN OBJECTS & DEBRIS PRESENT ON APRON. GRASS GROWING THROUGH CRACKS.
FOR CD CTC MONROE APCH AT 318-327-5641, IF UNAVBL, CTC FORT WORTH ARTCC AT 817-858-7584.

Instrument Procedures

There are no published instrument procedures at F86.

Some nearby airports with instrument procedures:

KMLU - Monroe Regional Airport (23 nm N)
M79 - John H Hooks Jr Memorial Airport (26 nm NE)
0R5 - David G Joyce Airport (32 nm W)
F88 - Jonesboro Airport (35 nm W)
KRSN - Ruston Regional Airport (36 nm NW)
 
Loc | Ops | Rwys | IFR | FBO | Links
Com | Nav | Svcs | Stats | Notes
Area around F86 (Caldwell Parish Airport)
 
Road maps at: MapQuest Bing Google
 
Aerial photo
WARNING: Photo may not be current or correct
Aerial photo of F86 (Caldwell Parish Airport)
Photo by Bob Burns
Photo taken 02-Jan-2011
looking southeast.

Do you have a better or more recent aerial photo of Caldwell Parish Airport that you would like to share? If so, please send us your photo.

 
Sectional chart

 
Airport distance calculator
Flying to Caldwell Parish Airport? Find the distance to fly.

From to F86

Sunrise and sunset
Times for 06-Jul-2020
 Local
(UTC-5)
 Zulu
(UTC)
Morning civil twilight05:4110:41
Sunrise06:0911:09
Sunset20:1701:17
Evening civil twilight20:4501:45

Current date and time
Zulu (UTC)  06-Jul-2020 10:09:58
Local (UTC-5)  06-Jul-2020 05:09:58
 
METAR
KMLU 
24nm N 
060953Z AUTO 05004KT 10SM CLR 23/22 A2990 RMK AO2 SLP123 T02280217
KRSN 
36nm NW 
060955Z AUTO 00000KT 7SM SCT033 22/21 A2993 RMK AO2 LTG DSNT SW T02190210
KBQP 
39nm N 
060955Z AUTO 00000KT 7SM CLR 22/22 A2991 RMK AO2 T02180215 TSNO
K0R4 
44nm SE 
060955Z AUTO 00000KT 3SM BR OVC007 24/24 A2989 RMK AO2 T02400236
KESF 
45nm S 
061003Z AUTO 21003KT 10SM -RA FEW012 BKN060 OVC080 24/23 A2988 RMK AO2 P0000 T02440233
TAF
KMLU 
24nm N 
060539Z 0606/0706 00000KT P6SM FEW040 BKN250 FM061300 VRB03KT P6SM BKN012 FM061600 VRB04KT P6SM BKN025 FM061800 16005KT P6SM VCTS BKN035CB FM070100 VRB03KT P6SM FEW045 BKN150 BKN250
NOTAMs
Click for the latest NOTAMs
NOTAMs are issued by the DoD/FAA and will open in a separate window not controlled by AirNav.

 

 
 

Would you like to see your business listed on this page?

 If your business provides an interesting product or service to pilots, flight crews, aircraft, or users of the Caldwell Parish Airport, you should consider listing it here.  To start the listing process, click on the button below
 
Add a business
 

Other Pages about Caldwell Parish Airport

Update a link
 
Copyright © AirNav, LLC. All rights reserved. Privacy Policy  Contact